{"data":{"norad_id":62149,"intl_designator":"2024-224L","name":"STARLINK-32468","alt_names":[],"object_type":"PAYLOAD","status":"ACTIVE","operator":null,"country":"US","launch_date":"2024-11-30","launch_site_code":"AFETR","launch_vehicle":null,"mission":null,"orbit_class":"UNKNOWN","rcs_meters":null,"size_class":null,"mass_kg":null,"dimensions":null,"purposes":["comms"],"wikipedia_slug":null,"has_3d_model":false,"image_url":null,"decayed_at":null,"tle_current":{"epoch":"2026-09-21T08:19:11.316000Z","epoch_age_seconds":109122,"freshness":"FRESH","line1":"1 62149U 24224L   26264.34665875  .00008045  00000+0  30157-3 0  9995","line2":"2 62149  43.0031 133.1016 0001982 264.8958  95.1667 15.27579543102243","mean_motion":15.27579543,"eccentricity":0.0001982,"inclination_deg":43.0031,"raan_deg":133.1016,"arg_perigee_deg":264.8958,"mean_anomaly_deg":95.1667,"bstar":0.00030157,"rev_number":10224,"period_min":94.266776915066,"perigee_km":481.69057710694,"apogee_km":484.41035181786,"semimajor_km":6861.1874644624,"source":"CELESTRAK","updated_at":"2026-09-22T09:00:49.531126Z"}}}